Weather History for KHSE - January, 2014

Change the Weather History Date:

Saturday, January 18, 2014

  Actual Average Record
Temperature  
Mean Temperature 46 °F 45 °F  
Max Temperature 57 °F 52 °F 72 °F (1937)
Min Temperature 35 °F 39 °F 19 °F (1982)
Degree Days  
Heating Degree Days 19 20  
Month to date heating degree days 287 353  
Since 1 July heating degree days 989 1160  
Cooling Degree Days 0 0  
Month to date cooling degree days 0 0  
Year to date cooling degree days 0 0  
Moisture  
Dew Point 29 °F    
Average Humidity 65    
Maximum Humidity 86    
Minimum Humidity 44    
Precipitation  
Precipitation 0.01 in 0.16 in 1.83 in (1926)
Month to date precipitation 4.10 3.06  
Year to date precipitation 4.10 3.06  
Snow  
Snow 0.00 in - - ()
Month to date snowfall T  
Since 1 July snowfall T  
Snow Depth 0.00 in    
Sea Level Pressure  
Sea Level Pressure 29.94 in    
Wind  
Wind Speed 12 mph (WNW)    
Max Wind Speed 24 mph    
Max Gust Speed 38 mph    
Visibility 10 miles    
Events Rain    
T = Trace of Precipitation, MM = Missing Value Source: NWS Daily Summary

Daily Weather History Graph

Daily Weather History Graph

Search for Another Location

Airport or City:

Trip Planner

Search our weather history database for the weather conditions in past years. The results will help you decide how hot, cold, wet, or windy it might be!

Date:

Astronomy

Jan. 18, 2014 Rise Set
Actual Time 7:09 AM EST 5:16 PM EST
Civil Twilight 6:42 AM EST 5:44 PM EST
Nautical Twilight 6:11 AM EST 6:15 PM EST
Astronomical Twilight 5:40 AM EST 6:45 PM EST
Moon 7:49 PM EST (1/18) 8:14 AM EST (1/18)
Length of Visible Light 11h 01m
Length of Day
10h 06m
Waning Gibbous, 94% of the Moon is Illuminated
Jan 18
Waning Gibbous
Jan 24
Last Quarter
Jan 30
New
Feb 6
First Quarter
Feb 14
Full

Hourly Weather History & Observations

Time (EST) Temp. Windchill Dew Point Humidity Pressure Visibility Wind Dir Wind Speed Gust Speed Precip Events Conditions
12:51 AM 53.1 °F - 46.9 °F 80% 29.84 in 10.0 mi West 4.6 mph - N/A   Scattered Clouds
1:51 AM 54.0 °F - 46.9 °F 77% 29.82 in 9.0 mi WSW 6.9 mph - N/A   Scattered Clouds
2:51 AM 55.9 °F - 39.0 °F 53% 29.79 in 10.0 mi West 17.3 mph 29.9 mph N/A   Overcast
3:51 AM 48.9 °F - 44.1 °F 83% 29.84 in 10.0 mi West 17.3 mph 34.5 mph 0.00 in Rain Light Rain
4:51 AM 46.9 °F - 44.1 °F 90% 29.82 in 10.0 mi WNW 10.4 mph - 0.01 in   Overcast
5:51 AM 46.9 °F - 42.1 °F 83% 29.82 in 10.0 mi West 10.4 mph 18.4 mph N/A   Scattered Clouds
6:51 AM 46.0 °F 38.5 °F 34.0 °F 63% 29.83 in 10.0 mi West 19.6 mph 29.9 mph N/A   Clear
7:51 AM 44.1 °F 36.2 °F 30.0 °F 58% 29.87 in 10.0 mi West 18.4 mph 31.1 mph N/A   Partly Cloudy
8:51 AM 42.1 °F 34.5 °F 33.1 °F 70% 29.91 in 10.0 mi WNW 15.0 mph 23.0 mph N/A   Clear
9:51 AM 44.1 °F 38.1 °F 30.0 °F 58% 29.95 in 10.0 mi West 11.5 mph 19.6 mph N/A   Clear
10:51 AM 44.1 °F 38.1 °F 32.0 °F 63% 29.96 in 10.0 mi West 11.5 mph 25.3 mph N/A   Partly Cloudy
11:51 AM 44.1 °F 37.7 °F 27.0 °F 51% 29.95 in 10.0 mi WNW 12.7 mph 24.2 mph N/A   Scattered Clouds
12:51 PM 42.1 °F 35.7 °F 26.1 °F 53% 29.93 in 10.0 mi WNW 11.5 mph 18.4 mph N/A   Mostly Cloudy
1:51 PM 42.1 °F 34.9 °F 25.0 °F 51% 29.93 in 10.0 mi WNW 13.8 mph 24.2 mph N/A   Partly Cloudy
2:51 PM 41.0 °F 33.9 °F 23.0 °F 49% 29.95 in 10.0 mi West 12.7 mph 24.2 mph N/A   Mostly Cloudy
3:51 PM 41.0 °F 34.3 °F 24.1 °F 51% 29.97 in 10.0 mi WNW 11.5 mph 21.9 mph N/A   Mostly Cloudy
4:51 PM 39.0 °F 32.3 °F 24.1 °F 55% 29.99 in 10.0 mi WNW 10.4 mph 19.6 mph N/A   Scattered Clouds
5:51 PM 37.9 °F 30.5 °F 23.0 °F 55% 30.00 in 10.0 mi WNW 11.5 mph 20.7 mph N/A   Partly Cloudy
6:51 PM 37.9 °F 29.6 °F 21.0 °F 51% 30.03 in 10.0 mi WNW 13.8 mph 21.9 mph N/A   Clear
7:51 PM 37.0 °F 30.4 °F 19.0 °F 48% 30.05 in 10.0 mi NW 9.2 mph 20.7 mph N/A   Clear
8:51 PM 36.0 °F 29.6 °F 18.0 °F 48% 30.07 in 10.0 mi WNW 8.1 mph 18.4 mph N/A   Clear
9:51 PM 36.0 °F 26.7 °F 16.0 °F 44% 30.08 in 10.0 mi WNW 15.0 mph 21.9 mph N/A   Clear
10:51 PM 35.1 °F 28.6 °F 16.0 °F 46% 30.07 in 10.0 mi WNW 8.1 mph - N/A   Clear
11:51 PM 35.1 °F 28.6 °F 14.0 °F 42% 30.06 in 10.0 mi WNW 8.1 mph - N/A   Clear